Wind_Speed
9 8 6 5 4 2 1 1 0 2 4 8 11 9 11 14 13 10 8 6 5 5 6 7 9 7 4 9 10 8 11 20 14 9 10 10 7 8 3 3 7 4 6 9 13
10 9 8 7 5 4 2 1 0 0 2 5 10 12 11 11 14 14 11 9 6 7 9 10 8 5 6 10 13 3 11 19 11 9 14 12 12 4 4 3 6 6 11 12 12
12 11 10 8 8 6 4 2 1 1 2 4 8 12 14 12 11 14 15 11 9 10 10 8 9 8 9 10 5 12 12 20 15 10 8 12 14 8 7 5 5 8 12 11 15
12 11 10 10 9 8 7 5 3 3 3 4 7 11 15 13 11 14 17 14 12 13 10 8 8 7 7 10 6 9 8 16 17 13 10 13 17 9 6 4 8 8 9 18 20
11 10 10 10 10 10 9 8 6 5 5 5 8 11 14 14 9 14 16 15 13 16 10 9 4 4 10 7 4 4 3 4 10 13 11 14 18 12 10 5 9 11 14 17 16
10 9 9 9 10 10 10 10 9 7 6 7 9 11 14 11 9 14 16 15 15 18 12 9 4 4 5 8 3 2 2 6 9 11 12 14 13 16 9 9 8 10 16 16 14
10 9 7 8 10 12 14 15 16 15 13 10 10 10 10 10 10 16 17 18 21 20 11 11 7 6 9 5 8 9 3 6 4 2 8 17 12 11 11 10 10 7 14 11 9
10 8 6 6 8 12 14 14 14 14 13 11 9 6 4 8 11 18 18 19 23 20 12 11 8 6 6 4 8 3 5 4 1 11 7 8 11 12 12 12 9 7 11 11 11
9 7 5 5 6 7 8 8 9 9 9 9 8 8 6 5 15 20 19 21 23 20 14 10 8 6 4 5 5 2 2 2 2 12 5 6 6 12 14 14 12 8 7 5 6
10 7 3 2 3 4 3 3 2 4 7 8 8 8 8 7 13 19 20 20 24 21 18 12 5 7 7 7 1 6 10 7 6 5 15 10 8 15 9 9 16 13 8 5 2
9 6 3 1 3 2 1 3 6 5 4 4 9 10 8 8 12 14 17 19 25 24 20 16 7 9 7 6 6 12 13 10 4 7 9 8 11 16 14 15 20 16 14 9 4
10 8 5 5 4 4 1 1 2 8 3 8 8 9 9 8 9 13 17 18 18 24 23 17 17 11 8 8 10 13 10 8 5 1 9 9 6 14 12 15 17 21 14 12 8
12 9 6 6 7 6 3 2 4 8 5 5 9 11 8 8 8 9 15 19 17 15 17 16 7 13 9 8 10 11 13 10 6 7 6 2 8 16 19 18 16 18 22 19 16
12 11 8 8 9 8 4 2 2 5 2 4 8 11 9 8 8 11 11 9 11 11 11 9 6 8 5 9 11 9 7 10 12 3 2 5 3 4 17 20 22 20 20 19 20
15 12 11 10 10 10 6 5 2 3 1 5 7 9 7 6 3 9 9 7 6 6 7 5 5 3 3 3 7 6 8 12 12 7 4 4 3 3 7 10 17 24 25 23 23
17 12 12 11 11 14 11 6 5 3 4 7 9 8 7 6 5 2 12 7 8 7 6 4 4 4 2 5 4 5 8 9 8 7 4 8 5 5 3 4 6 16 22 28 26
16 15 11 11 11 16 13 10 5 5 3 4 10 11 8 8 6 9 10 12 10 8 7 5 4 4 6 6 6 7 7 4 2 1 6 4 5 7 6 8 9 9 17 28 34
15 15 13 12 12 14 15 13 8 5 3 3 10 11 16 11 11 9 10 13 11 9 3 3 3 10 13 14 10 11 11 6 6 4 4 8 6 4 6 11 11 9 14 18 23
14 15 11 12 12 13 18 19 9 7 2 1 5 9 14 14 15 13 16 14 12 9 4 3 1 2 9 13 9 8 7 6 4 3 1 4 7 10 12 12 10 11 13 10 10
12 12 8 9 11 13 19 22 13 8 3 2 3 4 6 5 14 19 13 11 13 12 13 4 3 2 4 5 8 8 7 3 3 3 3 4 8 12 11 7 9 14 12 12 12
10 9 8 8 8 14 20 20 19 9 7 3 2 4 5 5 5 19 15 13 15 16 16 14 6 6 6 3 5 6 7 3 3 2 5 2 6 9 7 7 12 11 7 7 11
11 9 10 9 9 15 18 16 11 7 11 11 13 9 6 6 7 10 19 15 18 18 19 15 7 7 6 9 9 7 5 6 4 4 5 2 9 8 6 6 4 9 8 4 12
10 8 13 12 14 15 14 14 11 9 5 5 9 9 9 9 6 8 12 13 20 18 18 12 7 5 5 10 11 8 7 3 2 4 5 3 5 5 5 5 3 5 6 4 4
14 4 12 13 16 19 17 17 17 15 12 8 8 12 13 11 13 11 13 16 19 14 13 10 11 9 13 7 9 7 5 9 7 5 5 9 9 6 6 7 9 7 5 10 4
15 10 10 10 16 18 20 16 16 15 13 12 8 7 9 10 13 17 16 19 17 14 13 14 11 8 11 11 5 4 5 9 11 12 11 9 10 7 8 8 13 14 14 12 13
18 16 15 18 17 19 19 18 20 20 20 18 14 11 7 12 12 17 21 21 19 18 18 16 11 12 11 10 8 7 6 3 10 15 17 17 13 8 7 3 8 8 8 9 9
15 17 18 17 18 19 19 20 20 22 21 19 18 17 13 11 14 18 17 17 17 18 24 20 15 16 10 13 11 12 17 16 9 17 16 13 7 8 7 2 3 7 7 8 12
Wind_Direction
29 30 31 31 23 10 350 320 109 171 190 195 194 185 185 195 195 193 195 205 162 154 144 130 126 123 96 15 18 23 162 146 144 162 166 171 183 178 78 24 95 111 124 129 128
34 34 32 31 32 28 22 346 349 124 179 188 191 188 174 173 189 193 198 196 165 158 150 131 111 59 30 31 40 2 163 169 153 136 162 179 181 192 156 107 83 127 124 118 117
36 38 40 37 37 39 37 40 50 85 129 173 182 185 178 175 174 188 199 195 175 170 160 122 88 47 28 26 4 58 180 186 200 186 174 191 188 221 179 53 67 44 136 110 115
34 36 38 40 40 39 41 49 63 82 98 145 167 173 176 173 168 180 193 196 177 172 159 110 82 42 19 24 72 86 79 197 201 187 185 180 179 209 152 104 102 106 125 114 109
33 34 37 39 39 41 45 52 64 75 94 128 153 161 168 170 177 179 186 187 174 171 151 111 102 45 27 33 45 84 167 134 187 172 178 177 179 163 164 156 133 129 127 129 112
32 33 38 46 47 49 57 61 68 78 95 122 140 150 158 156 176 176 179 176 168 166 146 126 141 105 66 36 26 13 149 124 141 220 214 184 172 193 156 165 162 131 152 135 122
31 33 44 60 66 71 77 79 79 78 81 94 120 135 152 171 161 173 177 170 161 159 144 143 164 127 82 45 67 60 72 155 206 155 196 210 202 182 192 177 170 154 160 147 144
24 29 45 78 92 95 93 90 89 89 89 96 112 117 115 187 178 178 176 174 170 162 151 159 172 143 98 117 68 108 120 130 158 162 150 181 192 176 185 172 159 166 161 143 134
16 24 46 99 114 107 101 98 96 98 106 116 124 110 89 158 174 179 179 177 176 168 162 189 165 149 128 157 77 358 11 262 202 186 192 174 195 177 183 183 194 163 166 134 180
6 7 24 120 138 120 126 91 85 96 110 123 114 114 116 91 163 172 179 179 180 178 183 195 213 194 188 187 79 3 330 325 237 234 217 203 206 173 193 186 199 202 164 149 180
359 347 327 209 154 138 221 57 76 79 107 128 132 126 108 134 155 174 178 185 189 191 198 203 218 217 227 237 292 317 314 300 204 223 203 215 226 224 215 204 216 204 207 200 148
348 338 305 267 227 231 286 123 84 45 118 117 122 119 109 111 158 175 184 191 194 201 212 224 231 245 239 246 279 299 292 259 223 207 207 235 254 220 215 219 218 222 217 222 208
340 330 304 270 237 226 268 45 108 35 100 139 139 133 120 111 128 146 175 184 189 192 198 210 206 229 234 241 265 286 264 245 246 228 201 276 235 232 243 245 242 223 228 230 228
327 320 304 264 236 234 244 200 62 16 76 165 141 157 138 134 152 157 140 149 164 168 196 224 198 209 240 249 250 262 244 238 250 249 258 227 289 260 244 250 244 225 231 240 224
313 309 300 278 246 227 230 228 287 348 14 152 173 150 162 141 131 176 174 174 163 162 201 186 174 191 306 177 210 235 267 235 229 235 293 277 284 285 298 265 254 243 247 231 234
308 295 288 280 256 229 212 231 248 280 247 182 184 183 178 209 210 188 201 206 194 210 234 179 226 240 284 211 167 249 201 173 200 241 296 270 235 275 240 256 257 243 245 238 232
309 297 272 273 254 236 220 229 224 226 180 191 211 210 207 207 221 240 216 194 178 212 228 231 218 239 234 217 178 186 197 86 41 17 225 237 235 270 261 272 284 261 241 237 236
312 305 274 259 251 243 215 206 223 182 126 207 216 231 229 217 222 216 201 186 193 205 206 158 182 262 233 226 241 222 205 175 189 194 235 215 243 285 253 288 291 275 250 253 256
315 302 286 259 247 233 211 208 212 201 245 354 184 214 222 228 238 235 231 225 214 223 211 142 108 67 202 220 227 207 200 203 139 124 255 236 256 262 276 287 306 309 282 273 273
319 301 286 257 241 218 210 218 215 213 241 314 152 158 187 213 215 220 228 216 230 225 210 210 151 135 128 191 225 221 194 171 195 142 257 264 262 254 271 282 305 326 301 269 265
320 292 277 247 239 213 214 222 231 229 279 280 214 230 245 284 264 218 226 231 205 189 194 218 211 196 195 194 189 160 186 218 184 202 167 262 268 280 244 274 319 345 350 302 262
320 274 264 242 233 224 226 228 241 230 256 273 283 275 275 277 270 215 214 205 192 203 193 194 177 189 226 186 189 192 207 219 197 223 214 231 289 286 270 274 334 336 321 316 268
314 263 252 253 236 235 240 240 234 264 261 254 246 259 293 251 241 208 201 205 201 195 186 185 189 173 167 207 203 197 199 211 226 205 228 175 286 312 328 214 237 279 332 253 32
311 257 233 244 242 241 245 249 259 265 271 272 260 266 268 245 224 205 195 182 180 194 206 203 208 212 220 231 204 194 238 230 232 214 226 246 312 324 278 234 260 275 278 288 272
301 282 229 232 234 236 250 252 255 261 254 257 256 248 249 247 238 213 200 187 193 205 212 198 197 210 227 222 225 227 246 235 236 258 245 282 291 313 299 252 264 282 273 310 277
285 284 265 253 247 251 246 254 258 257 261 264 262 259 225 223 221 211 206 212 222 218 210 199 188 184 189 205 211 219 252 267 255 256 254 258 284 296 295 238 265 287 280 306 301
275 274 277 271 265 260 260 263 262 261 258 257 253 267 253 237 236 224 218 218 242 236 213 200 202 185 197 209 230 244 245 250 274 267 251 242 284 278 254 240 38 19 360 337 325
Height
3139 3138 3137 3136 3136 3135 3135 3135 3136 3136 3137 3138 3140 3142 3144 3147 3149 3151 3151 3151 3153 3155 3156 3157 3158 3159 3160 3157 3155 3153 3154 3155 3160 3163 3165 3165 3167 3168 3169 3170 3169 3169 3170 3171 3172
3140 3139 3138 3137 3136 3136 3135 3135 3136 3136 3136 3137 3138 3141 3143 3146 3148 3150 3151 3151 3153 3155 3156 3158 3159 3160 3159 3158 3157 3154 3156 3157 3159 3163 3165 3165 3167 3170 3172 3172 3172 3171 3172 3173 3174
3142 3140 3139 3138 3137 3136 3136 3135 3135 3136 3136 3137 3138 3140 3143 3145 3148 3149 3150 3151 3153 3154 3158 3159 3160 3160 3160 3159 3157 3155 3156 3158 3161 3164 3165 3167 3168 3171 3172 3174 3174 3174 3175 3175 3176
3144 3142 3141 3139 3138 3137 3136 3136 3136 3136 3136 3137 3137 3139 3142 3145 3149 3148 3149 3151 3153 3155 3158 3160 3161 3161 3160 3159 3158 3158 3157 3159 3160 3163 3165 3167 3168 3171 3173 3176 3176 3177 3178 3178 3178
3146 3144 3143 3141 3140 3139 3138 3137 3137 3136 3136 3137 3138 3140 3142 3145 3147 3147 3149 3151 3153 3156 3159 3161 3162 3162 3161 3160 3160 3160 3159 3160 3160 3162 3166 3168 3168 3171 3175 3176 3176 3178 3180 3180 3181
3147 3146 3145 3143 3142 3141 3139 3138 3138 3137 3137 3138 3139 3141 3144 3146 3146 3147 3149 3152 3154 3157 3160 3161 3163 3163 3162 3162 3162 3161 3160 3162 3161 3162 3164 3169 3170 3173 3176 3176 3177 3179 3181 3182 3183
3148 3147 3146 3145 3144 3143 3142 3141 3140 3139 3139 3140 3141 3143 3144 3147 3147 3148 3150 3152 3155 3158 3160 3161 3163 3164 3163 3164 3164 3163 3162 3164 3164 3165 3166 3169 3171 3173 3176 3176 3178 3180 3182 3184 3184
3150 3148 3147 3146 3146 3145 3144 3143 3142 3142 3142 3142 3143 3144 3144 3144 3146 3148 3150 3153 3156 3158 3160 3161 3163 3164 3164 3165 3165 3163 3164 3165 3166 3166 3168 3170 3170 3172 3175 3177 3178 3180 3181 3184 3186
3151 3150 3148 3147 3147 3147 3146 3145 3144 3144 3143 3143 3144 3144 3144 3143 3145 3148 3151 3153 3155 3158 3160 3162 3164 3164 3165 3166 3166 3163 3163 3165 3167 3169 3168 3170 3167 3170 3174 3177 3179 3180 3181 3183 3185
3152 3151 3149 3148 3148 3148 3147 3146 3146 3146 3145 3145 3144 3147 3145 3144 3145 3147 3150 3153 3155 3157 3161 3162 3163 3163 3165 3166 3166 3165 3165 3166 3167 3168 3168 3170 3171 3172 3174 3177 3177 3179 3182 3183 3185
3152 3151 3149 3149 3149 3148 3148 3148 3149 3149 3145 3145 3145 3144 3144 3144 3145 3148 3150 3153 3154 3157 3159 3161 3163 3163 3163 3166 3166 3166 3166 3166 3166 3168 3170 3170 3170 3171 3173 3174 3176 3178 3180 3183 3185
3152 3150 3149 3148 3148 3147 3147 3147 3148 3149 3147 3146 3146 3145 3145 3145 3146 3146 3149 3153 3155 3157 3159 3162 3162 3163 3165 3166 3166 3165 3165 3166 3167 3167 3169 3169 3170 3171 3173 3174 3176 3177 3179 3181 3183
3151 3149 3148 3147 3147 3147 3147 3147 3147 3147 3147 3147 3146 3146 3147 3147 3147 3147 3149 3151 3154 3156 3158 3160 3162 3162 3164 3165 3165 3165 3164 3165 3167 3167 3169 3170 3170 3169 3169 3170 3173 3175 3177 3179 3182
3150 3148 3146 3146 3147 3146 3147 3147 3147 3147 3147 3149 3147 3148 3148 3148 3149 3149 3151 3154 3154 3157 3158 3159 3161 3162 3162 3163 3164 3164 3164 3165 3167 3168 3169 3170 3170 3167 3167 3168 3168 3172 3174 3176 3180
3147 3146 3144 3143 3144 3145 3148 3147 3148 3148 3149 3149 3148 3148 3148 3149 3151 3150 3152 3153 3154 3156 3158 3159 3159 3160 3160 3160 3162 3164 3163 3164 3166 3168 3170 3170 3170 3167 3166 3165 3165 3167 3169 3173 3176
3143 3142 3141 3141 3142 3143 3145 3146 3148 3150 3146 3146 3147 3146 3147 3148 3149 3150 3151 3153 3154 3155 3156 3157 3158 3159 3160 3160 3162 3162 3162 3163 3166 3168 3169 3168 3170 3165 3164 3165 3164 3164 3166 3168 3172
3139 3138 3138 3137 3139 3139 3142 3145 3148 3145 3145 3146 3144 3145 3146 3147 3148 3148 3149 3150 3153 3155 3155 3155 3156 3157 3159 3160 3161 3162 3162 3164 3169 3170 3169 3167 3168 3163 3163 3162 3163 3163 3163 3164 3166
3136 3134 3133 3133 3134 3135 3140 3144 3144 3141 3141 3141 3142 3143 3144 3145 3147 3148 3148 3149 3151 3152 3153 3154 3156 3155 3156 3158 3160 3160 3161 3162 3168 3171 3165 3166 3164 3161 3160 3160 3159 3159 3159 3159 3161
3132 3130 3129 3129 3130 3132 3137 3138 3138 3139 3140 3139 3139 3140 3141 3143 3146 3146 3147 3147 3149 3150 3152 3153 3155 3153 3153 3155 3159 3159 3160 3161 3160 3164 3164 3162 3160 3159 3157 3157 3156 3155 3155 3152 3153
3130 3127 3127 3126 3126 3129 3132 3134 3136 3137 3137 3138 3138 3139 3140 3141 3141 3142 3144 3145 3146 3148 3150 3153 3154 3154 3154 3155 3156 3157 3159 3160 3160 3164 3165 3159 3157 3155 3154 3154 3154 3153 3151 3152 3152
3127 3125 3125 3124 3125 3126 3127 3131 3133 3135 3136 3137 3136 3137 3139 3139 3138 3139 3141 3143 3143 3145 3148 3151 3153 3155 3154 3154 3155 3157 3157 3158 3160 3161 3161 3162 3155 3153 3153 3153 3152 3150 3149 3150 3151
3123 3124 3122 3123 3125 3123 3124 3127 3130 3132 3133 3134 3134 3136 3135 3137 3137 3137 3138 3140 3141 3144 3145 3149 3150 3152 3153 3153 3154 3155 3155 3156 3156 3159 3158 3159 3154 3151 3152 3152 3151 3150 3148 3148 3148
3121 3120 3120 3121 3121 3121 3123 3124 3126 3129 3130 3131 3132 3133 3133 3134 3137 3136 3136 3138 3139 3142 3144 3146 3147 3150 3152 3155 3153 3152 3153 3153 3154 3155 3156 3157 3154 3151 3151 3150 3150 3149 3148 3147 3147
3118 3118 3118 3118 3118 3119 3120 3121 3123 3125 3127 3128 3129 3129 3130 3131 3133 3134 3135 3136 3138 3140 3142 3143 3144 3146 3148 3148 3149 3150 3151 3152 3152 3153 3153 3152 3151 3150 3150 3149 3149 3149 3149 3148 3147
3114 3114 3114 3115 3114 3115 3116 3117 3118 3120 3123 3125 3126 3126 3126 3127 3129 3132 3133 3134 3136 3137 3139 3141 3142 3143 3143 3145 3146 3147 3148 3148 3149 3150 3150 3150 3149 3149 3148 3148 3147 3146 3146 3146 3147
3110 3110 3110 3110 3111 3111 3112 3112 3113 3114 3117 3120 3122 3122 3122 3123 3126 3127 3129 3130 3132 3134 3135 3137 3139 3140 3141 3142 3144 3145 3145 3145 3145 3145 3146 3146 3147 3147 3146 3146 3145 3145 3144 3144 3144
3105 3104 3103 3104 3105 3106 3107 3106 3106 3108 3112 3114 3117 3117 3119 3119 3121 3123 3124 3127 3128 3129 3130 3134 3136 3138 3139 3140 3140 3142 3141 3141 3141 3140 3141 3143 3144 3144 3145 3145 3145 3144 3143 3142 3140